Location: Unspecified
(47.8330°N, 0.0000°E)
Time: 10:18:25
(UTC+00:00)

VELOX 1 - Pass Details

Date: 28 August 2019
Orbit: 629 x 643 km, 98.2° (Epoch: 18 September)

Event Time Altitude Azimuth Distance (km) Brightness Sun altitude
Exits shadow 23:46:17 13° 54° (NE) 1,801 ? -32.5°
Drops below altitude 10° 23:48:12 10° 28° (NNE) 2,026 ? -32.6°
Sets 23:51:26 0° 3° (N) 2,943 ? -32.6°
